PSLV R/B, 40058

Orbit data source: Space-Track

PSLV R/B, 40058 is space debris in SSO originally from a launch on Mon, 30 Jun 2014 UTC launched from the Sirharikota (SRI). Debris objects in space refer to the collection of defunct objects orbiting the Earth. Examples of debris include non-operational satellites, rocket bodies, and fragments generated from explosions, collisions, or faulty payload assembly.

Loading next visibility...
Identifier
40058, 2014-034F
Orbit
SSO
Country
Flag of ININ / IND
Related business
Manufacturer
VSSC/LPSC
Mission
Spacecraft
Bus & Motor
PS-4, Unknown motor
Mass
920 kg wet, 920 kg dry
Launch date (UTC)
2014-06-30 (11 years ago)
Launch vehicle
Unknown
Launch site
Sirharikota (SRI)
Object type
Payload
Rocket body
Debris
Shape & HBR
Cyl + Cyl + 2 Nozzle, 1.6 m
Radar Cross Section
6.185 m², Large (>1 m²)

Expand to show TLE details & history
Last TLE update: 21 hours ago

TLE from 21 hours ago
0 PSLV R/B
1 40058U 14034F   25260.05232190  .00000833  00000-0  10776-3 0  9994
2 40058  98.3180 105.7769 0021326 134.5070 225.7891 14.83607399605563
Epoch: 2025-09-17T01:15Z
TLE epoch observation values (Epoch: 2025-09-17T01:15:20.612Z)
Latitude
0.0001°
Longitude
90.70719°
Altitude
631.396 km
Speed
7.537 km/s
True Right ascension
07h 03m 06s
True Declination
0° 00' 00"
Sunlit
Object was in daylight at epoch
Visualization orbit readout
Latitude
Unknown
Longitude
Unknown
Altitude
Unknown
Speed
Unknown
Apparent Right ascension
Unknown
Apparent Declination
Unknown
Sunlit
N/A
Visualization observer readout
Local Sidereal Time
14:50:48
Azimuth
Unknown
Elevation
Unknown
Doppler factor
Unknown
Orbital elements
Apogee altitude
629.929 km
Perigee altitude
600.102 km
Semi-major axis
6,993.153 km
Eccentricity
0.00213
Inclination
98.318°
RAAN
105.7769°
Arg. of periapsis
134.507°
True anomaly
225.61426°
Mean anomaly
225.7891°
Eccentric anomaly
225.70165°
Mean motion
3.71136 °/min
Orbital period
97 mins
BSTAR
0.00010776
Loading maneuver chart data...
Computing Atmospheric mass density...
Loading historical data...
Loading historical data...
Loading historical data...
Loading historical data...
Loading historical data...
Loading historical data...
Loading historical data...
Other satellites on launch #34 in the year 2014 (2014-06-30 UTC)

Documentation

Showing up to 5 results
|